ランキン彗星

P/2020 V4 ( Rankin )

English version
Home page
Updated on September 18, 2021

---------------------------------------------------------------------

・ プロフィール

発見日 2020年11月15日
発見光度 19.2等
発見者 David Rankin (Mount Lemmon Survey)

・ 写真集

・ 軌道要素

Epoch 2021 July 5.0 TT = JDT 2459400.5
T 2021 July 17.93133 TT                                 Rudenko
q   5.1485371            (2000.0)            P               Q
n   0.03451373     Peri.  256.99759     -0.17038298     -0.98047875
a   9.3427520      Node   203.50790     +0.97226203     -0.15108367
e   0.4489271      Incl.   14.24309     +0.16023792     -0.12583774
P  28.6
From 356 observations 2019 Sept. 22-2021 Apr. 9, mean residual 0".6.

・ 光度変化

        m1 = -14.0 + 5 logΔ + 40.0 log r

---------------------------------------------------------------------

軌道要素はM.P.E.C. 2021-L04に掲載されたものです。
光度グラフはComet for Windowsで作成したものです。

---------------------------------------------------------------------

Copyright(C) Seiichi Yoshida (comet@aerith.net). All rights reserved.